| time (UTC) | temp F | wind direction | speed MPH | gust MPH | rain 1hr in | rain 24hr in | rain mn in | humidity % | barometer mb |
| 20260831085019 | 70 | 190 | 7.0 | 11.0 | 0.00 | 0.25 | 0.25 | 68 | 1012.6 |
| 20260831084016 | 70 | 228 | 8.0 | 14.0 | 0.00 | 0.25 | 0.25 | 69 | 1012.4 |
| 20260831083112 | 68 | 231 | 10.0 | 17.0 | 0.00 | 0.25 | 0.25 | 71 | 1012.5 |
| 20260831082109 | 68 | 182 | 7.0 | 14.0 | 0.00 | 0.25 | 0.25 | 73 | 1012.4 |
| 20260831081106 | 68 | 222 | 7.0 | 14.0 | 0.00 | 0.25 | 0.25 | 75 | 1012.3 |
| 20260831075059 | 68 | 253 | 5.0 | 9.0 | 0.00 | 0.25 | 0.25 | 78 | 1012.2 |
| 20260831074056 | 66 | 236 | 6.0 | 11.0 | 0.00 | 0.25 | 0.25 | 80 | 1012.4 |
| 20260831073052 | 66 | 248 | 7.0 | 13.0 | 0.00 | 0.25 | 0.25 | 81 | 1012.3 |
| 20260831072048 | 66 | 246 | 6.0 | 11.0 | 0.00 | 0.25 | 0.25 | 81 | 1012.2 |
| 20260831071043 | 66 | 216 | 5.0 | 8.0 | 0.00 | 0.25 | 0.25 | 83 | 1012.1 |
| 20260831070042 | 65 | 212 | 6.0 | 11.0 | 0.00 | 0.25 | 0.25 | 85 | 1011.9 |
| 20260831065037 | 65 | 229 | 5.0 | 9.0 | 0.00 | 0.25 | 0.25 | 86 | 1011.8 |
| 20260831064034 | 65 | 227 | 4.0 | 9.0 | 0.00 | 0.25 | 0.25 | 87 | 1011.9 |
| 20260831063030 | 64 | 231 | 5.0 | 11.0 | 0.00 | 0.25 | 0.25 | 89 | 1011.7 |
| 20260831062025 | 64 | 229 | 3.0 | 7.0 | 0.00 | 0.25 | 0.25 | 91 | 1011.5 |
| 20260831061022 | 64 | 232 | 5.0 | 9.0 | 0.00 | 0.25 | 0.25 | 91 | 1011.5 |
| 20260831060018 | 63 | 227 | 5.0 | 13.0 | 0.00 | 0.25 | 0.25 | 92 | 1011.3 |
| 20260831055113 | 63 | 238 | 5.0 | 8.0 | 0.00 | 0.25 | 0.25 | 92 | 1011.3 |
| 20260831054110 | 63 | 247 | 5.0 | 11.0 | 0.00 | 0.25 | 0.25 | 92 | 1011.2 |
| 20260831053107 | 63 | 244 | 6.0 | 11.0 | 0.00 | 0.25 | 0.25 | 92 | 1011.1 |
| 20260831052102 | 63 | 221 | 6.0 | 13.0 | 0.00 | 0.25 | 0.25 | 92 | 1010.9 |
| 20260831051059 | 63 | 239 | 7.0 | 13.0 | 0.00 | 0.25 | 0.25 | 92 | 1010.9 |
| 20260831050055 | 63 | 234 | 6.0 | 13.0 | 0.00 | 0.25 | 0.25 | 93 | 1010.7 |
| 20260831045051 | 63 | 238 | 4.0 | 9.0 | 0.00 | 0.25 | 0.25 | 96 | 1010.6 |
| 20260831044047 | 62 | 196 | 2.0 | 4.0 | 0.01 | 0.25 | 0.25 | 96 | 1010.3 |
| 20260831043043 | 62 | 231 | 1.0 | 4.0 | 0.01 | 0.25 | 0.25 | 96 | 1010.3 |
| 20260831042041 | 62 | 180 | 2.0 | 4.0 | 0.01 | 0.25 | 0.25 | 96 | 1010.1 |
| 20260831041037 | 62 | 180 | 2.0 | 4.0 | 0.01 | 0.25 | 0.25 | 96 | 1010.1 |
| 20260831040034 | 62 | 230 | 1.0 | 2.0 | 0.01 | 0.25 | 0.25 | 96 | 1010.2 |
| 20260831035031 | 62 | 193 | 0.0 | 2.0 | 0.02 | 0.25 | 0.25 | 96 | 1010.2 |
| 20260831034029 | 62 | 0.0 | 2.0 | 0.01 | 0.24 | 0.24 | 96 | 1009.9 | |
| 20260831033023 | 62 | 0.0 | 2.0 | 0.12 | 0.24 | 0.24 | 96 | 1010.0 | |
| 20260831032019 | 61 | 74 | 0.0 | 2.0 | 0.20 | 0.24 | 0.24 | 96 | 1010.1 |
| 20260831031017 | 61 | 90 | 0.0 | 2.0 | 0.24 | 0.24 | 0.24 | 96 | 1010.0 |
| 20260831030112 | 61 | 225 | 0.0 | 2.0 | 0.24 | 0.24 | 0.24 | 95 | 1010.3 |
| 20260831025110 | 61 | 195 | 1.0 | 4.0 | 0.22 | 0.22 | 0.22 | 95 | 1010.2 |
| 20260831024106 | 61 | 157 | 1.0 | 4.0 | 0.22 | 0.22 | 0.22 | 94 | 1010.1 |
| 20260831023102 | 61 | 254 | 4.0 | 8.0 | 0.12 | 0.12 | 0.12 | 93 | 1010.5 |
| 20260831022057 | 63 | 236 | 4.0 | 11.0 | 0.04 | 0.04 | 0.04 | 89 | 1009.7 |
| 20260831021055 | 63 | 0.0 | 0.0 | 0.00 | 0.00 | 0.00 | 86 | 1009.1 | |
| 20260831020049 | 63 | 85 | 1.0 | 4.0 | 0.00 | 0.00 | 0.00 | 86 | 1009.0 |
| 20260831015045 | 63 | 92 | 1.0 | 2.0 | 0.00 | 0.00 | 0.00 | 86 | 1009.1 |
| 20260831014040 | 63 | 76 | 1.0 | 2.0 | 0.00 | 0.00 | 0.00 | 86 | 1009.3 |
| 20260831013037 | 62 | 90 | 1.0 | 2.0 | 0.00 | 0.00 | 0.00 | 87 | 1009.4 |
| 20260831012034 | 62 | 0.0 | 2.0 | 0.00 | 0.00 | 0.00 | 88 | 1009.5 | |
| 20260831011031 | 62 | 87 | 1.0 | 2.0 | 0.00 | 0.00 | 0.00 | 88 | 1009.6 |
| 20260831010027 | 62 | 72 | 1.0 | 4.0 | 0.00 | 0.00 | 0.00 | 89 | 1009.6 |
| 20260831005025 | 62 | 0.0 | 0.0 | 0.00 | 0.00 | 0.00 | 89 | 1009.8 | |
| 20260831004018 | 62 | 80 | 2.0 | 4.0 | 0.00 | 0.00 | 0.00 | 89 | 1009.9 |
| 20260831003015 | 61 | 83 | 1.0 | 2.0 | 0.00 | 0.00 | 0.00 | 89 | 1010.0 |
| 20260831002112 | 61 | 93 | 1.0 | 2.0 | 0.00 | 0.00 | 0.00 | 89 | 1010.2 |
| 20260831001109 | 61 | 70 | 1.0 | 2.0 | 0.00 | 0.00 | 0.00 | 90 | 1010.3 |
| 20260831000106 | 60 | 69 | 1.0 | 2.0 | 0.00 | 0.00 | 0.00 | 90 | 1010.4 |
| 20260830235106 | 60 | 90 | 1.0 | 2.0 | 0.00 | 0.00 | 0.00 | 91 | 1010.4 |
| 20260830234100 | 60 | 0.0 | 0.0 | 0.00 | 0.00 | 0.00 | 90 | 1010.5 | |
| 20260830233058 | 60 | 0.0 | 0.0 | 0.00 | 0.00 | 0.00 | 90 | 1010.8 | |
| 20260830232053 | 60 | 90 | 0.0 | 2.0 | 0.00 | 0.00 | 0.00 | 90 | 1010.7 |
| 20260830231049 | 60 | 90 | 0.0 | 2.0 | 0.00 | 0.00 | 0.00 | 90 | 1010.8 |
| 20260830230044 | 60 | 0.0 | 0.0 | 0.00 | 0.00 | 0.00 | 90 | 1010.8 | |
| 20260830225041 | 60 | 0.0 | 0.0 | 0.00 | 0.00 | 0.00 | 89 | 1011.1 | |
| 20260830224038 | 60 | 0.0 | 0.0 | 0.00 | 0.00 | 0.00 | 89 | 1011.0 | |
| 20260830223035 | 61 | 0.0 | 0.0 | 0.00 | 0.00 | 0.00 | 87 | 1011.2 | |
| 20260830222031 | 61 | 0.0 | 0.0 | 0.00 | 0.00 | 0.00 | 87 | 1011.2 | |
| 20260830221027 | 61 | 0.0 | 0.0 | 0.00 | 0.00 | 0.00 | 87 | 1011.1 | |
| 20260830220023 | 61 | 0.0 | 0.0 | 0.00 | 0.00 | 0.00 | 86 | 1011.1 | |
| 20260830215019 | 62 | 0.0 | 0.0 | 0.00 | 0.00 | 0.00 | 85 | 1011.2 | |
| 20260830214115 | 62 | 0.0 | 0.0 | 0.00 | 0.00 | 0.00 | 84 | 1011.3 | |
| 20260830213110 | 62 | 0.0 | 0.0 | 0.00 | 0.00 | 0.00 | 83 | 1011.2 | |
| 20260830212108 | 62 | 0.0 | 0.0 | 0.00 | 0.00 | 0.00 | 84 | 1011.1 | |
| 20260830211104 | 63 | 0.0 | 2.0 | 0.00 | 0.00 | 0.00 | 83 | 1011.2 | |
| 20260830210100 | 63 | 90 | 0.0 | 2.0 | 0.00 | 0.00 | 0.00 | 84 | 1011.1 |
| 20260830205057 | 63 | 0.0 | 0.0 | 0.00 | 0.00 | 0.00 | 84 | 1011.2 | |
| 20260830204051 | 63 | 0.0 | 0.0 | 0.00 | 0.00 | 0.00 | 82 | 1011.3 | |
| 20260830203048 | 64 | 0.0 | 0.0 | 0.00 | 0.00 | 0.00 | 80 | 1011.1 | |
| 20260830202046 | 65 | 0.0 | 0.0 | 0.00 | 0.00 | 0.00 | 79 | 1011.2 | |
| 20260830201043 | 65 | 0.0 | 0.0 | 0.00 | 0.00 | 0.00 | 79 | 1011.1 | |
| 20260830200038 | 65 | 0.0 | 0.0 | 0.00 | 0.00 | 0.00 | 79 | 1011.3 | |
| 20260830195035 | 66 | 0.0 | 0.0 | 0.00 | 0.00 | 0.00 | 76 | 1011.4 | |
| 20260830194032 | 67 | 0.0 | 0.0 | 0.00 | 0.00 | 0.00 | 74 | 1011.2 | |
| 20260830193028 | 69 | 0.0 | 0.0 | 0.00 | 0.00 | 0.00 | 71 | 1011.2 | |
| 20260830192023 | 70 | 0.0 | 0.0 | 0.00 | 0.00 | 0.00 | 67 | 1011.3 | |
| 20260830191019 | 70 | 0.0 | 2.0 | 0.00 | 0.00 | 0.00 | 68 | 1011.2 | |
| 20260830190017 | 70 | 193 | 1.0 | 4.0 | 0.00 | 0.00 | 0.00 | 68 | 1011.2 |
| 20260830185114 | 70 | 180 | 1.0 | 2.0 | 0.00 | 0.00 | 0.00 | 68 | 1011.2 |
| 20260830184110 | 71 | 182 | 1.0 | 2.0 | 0.00 | 0.00 | 0.00 | 66 | 1011.1 |
| 20260830183106 | 71 | 180 | 1.0 | 2.0 | 0.00 | 0.00 | 0.00 | 66 | 1011.1 |
| 20260830182103 | 72 | 0.0 | 0.0 | 0.00 | 0.00 | 0.00 | 63 | 1010.9 | |
| 20260830181057 | 72 | 174 | 1.0 | 4.0 | 0.00 | 0.00 | 0.00 | 63 | 1011.0 |
| 20260830180053 | 73 | 201 | 1.0 | 4.0 | 0.00 | 0.00 | 0.00 | 62 | 1010.8 |
| 20260830175049 | 73 | 211 | 2.0 | 4.0 | 0.00 | 0.00 | 0.00 | 61 | 1010.6 |
| 20260830174044 | 74 | 216 | 2.0 | 4.0 | 0.00 | 0.00 | 0.00 | 60 | 1010.7 |
| 20260830173041 | 75 | 211 | 2.0 | 7.0 | 0.00 | 0.00 | 0.00 | 58 | 1010.5 |
| 20260830172037 | 76 | 239 | 2.0 | 4.0 | 0.00 | 0.00 | 0.00 | 56 | 1010.6 |
| 20260830171035 | 76 | 244 | 4.0 | 8.0 | 0.00 | 0.00 | 0.00 | 54 | 1010.6 |
| 20260830170032 | 77 | 225 | 3.0 | 6.0 | 0.00 | 0.00 | 0.00 | 52 | 1010.6 |
| 20260830165026 | 76 | 223 | 3.0 | 7.0 | 0.00 | 0.00 | 0.00 | 53 | 1010.6 |
| 20260830164023 | 76 | 238 | 5.0 | 11.0 | 0.00 | 0.00 | 0.00 | 52 | 1010.6 |
| 20260830163018 | 76 | 234 | 4.0 | 8.0 | 0.00 | 0.00 | 0.00 | 52 | 1010.7 |
| 20260830162016 | 77 | 244 | 6.0 | 14.0 | 0.00 | 0.00 | 0.00 | 51 | 1010.6 |
| 20260830161113 | 78 | 251 | 6.0 | 13.0 | 0.00 | 0.00 | 0.00 | 50 | 1010.5 |
| 20260830160109 | 77 | 241 | 5.0 | 9.0 | 0.00 | 0.00 | 0.00 | 51 | 1010.6 |
| 20260830155106 | 77 | 218 | 4.0 | 8.0 | 0.00 | 0.00 | 0.00 | 52 | 1010.7 |
| 20260830154103 | 77 | 244 | 4.0 | 8.0 | 0.00 | 0.00 | 0.00 | 52 | 1010.6 |
| 20260830153100 | 78 | 217 | 5.0 | 8.0 | 0.00 | 0.00 | 0.00 | 50 | 1010.7 |
| 20260830152056 | 79 | 228 | 4.0 | 9.0 | 0.00 | 0.00 | 0.00 | 50 | 1010.7 |
| 20260830151050 | 78 | 243 | 5.0 | 8.0 | 0.00 | 0.00 | 0.00 | 50 | 1010.8 |
| 20260830150047 | 78 | 230 | 5.0 | 11.0 | 0.00 | 0.00 | 0.00 | 48 | 1010.7 |
| 20260830145044 | 79 | 235 | 8.0 | 17.0 | 0.00 | 0.00 | 0.00 | 46 | 1010.9 |
| 20260830144041 | 79 | 227 | 8.0 | 15.0 | 0.00 | 0.00 | 0.00 | 46 | 1010.8 |
| 20260830143037 | 79 | 242 | 8.0 | 16.0 | 0.00 | 0.00 | 0.00 | 44 | 1010.9 |
| 20260830142032 | 80 | 240 | 8.0 | 13.0 | 0.00 | 0.00 | 0.00 | 43 | 1010.8 |
| 20260830141030 | 80 | 190 | 8.0 | 15.0 | 0.00 | 0.00 | 0.00 | 43 | 1010.9 |
| 20260830140024 | 79 | 244 | 7.0 | 11.0 | 0.00 | 0.00 | 0.00 | 44 | 1011.0 |
| 20260830135021 | 79 | 231 | 7.0 | 16.0 | 0.00 | 0.00 | 0.00 | 45 | 1011.1 |
| 20260830134017 | 79 | 214 | 8.0 | 17.0 | 0.00 | 0.00 | 0.00 | 45 | 1011.1 |
| 20260830133114 | 79 | 264 | 8.0 | 16.0 | 0.00 | 0.00 | 0.00 | 45 | 1011.1 |
| 20260830132109 | 78 | 209 | 6.0 | 13.0 | 0.00 | 0.00 | 0.00 | 46 | 1011.2 |
| 20260830131106 | 79 | 212 | 7.0 | 16.0 | 0.00 | 0.00 | 0.00 | 45 | 1011.3 |
| 20260830125059 | 79 | 252 | 7.0 | 15.0 | 0.00 | 0.00 | 0.00 | 46 | 1011.3 |
| 20260830124055 | 79 | 211 | 7.0 | 13.0 | 0.00 | 0.00 | 0.00 | 46 | 1011.3 |
| 20260830123051 | 79 | 213 | 8.0 | 15.0 | 0.00 | 0.00 | 0.00 | 46 | 1011.3 |
| 20260830122049 | 79 | 237 | 7.0 | 13.0 | 0.00 | 0.00 | 0.00 | 45 | 1011.4 |
| 20260830121044 | 78 | 253 | 5.0 | 14.0 | 0.00 | 0.00 | 0.00 | 48 | 1011.3 |
| 20260830120041 | 78 | 197 | 8.0 | 15.0 | 0.00 | 0.00 | 0.00 | 48 | 1011.3 |
| 20260830115041 | 78 | 187 | 9.0 | 17.0 | 0.00 | 0.00 | 0.00 | 48 | 1011.3 |
| 20260830114034 | 77 | 241 | 8.0 | 13.0 | 0.00 | 0.00 | 0.00 | 49 | 1011.5 |
| 20260830113032 | 77 | 236 | 8.0 | 14.0 | 0.00 | 0.00 | 0.00 | 49 | 1011.5 |
| 20260830112028 | 77 | 182 | 9.0 | 16.0 | 0.00 | 0.00 | 0.00 | 49 | 1011.4 |
| 20260830111022 | 76 | 243 | 7.0 | 18.0 | 0.00 | 0.00 | 0.00 | 49 | 1011.5 |
| 20260830110019 | 76 | 203 | 8.0 | 17.0 | 0.00 | 0.00 | 0.00 | 51 | 1011.5 |
| 20260830105015 | 76 | 188 | 8.0 | 16.0 | 0.00 | 0.00 | 0.00 | 51 | 1011.6 |
| 20260830104116 | 75 | 176 | 8.0 | 18.0 | 0.00 | 0.00 | 0.00 | 50 | 1011.7 |
| 20260830103109 | 76 | 257 | 10.0 | 20.0 | 0.00 | 0.00 | 0.00 | 51 | 1011.6 |
| 20260830102106 | 75 | 255 | 8.0 | 16.0 | 0.00 | 0.00 | 0.00 | 52 | 1011.9 |
| 20260830101101 | 75 | 230 | 8.0 | 17.0 | 0.00 | 0.00 | 0.00 | 54 | 1011.9 |
| 20260830100056 | 76 | 203 | 8.0 | 18.0 | 0.00 | 0.00 | 0.00 | 55 | 1011.7 |
| 20260830095052 | 74 | 231 | 9.0 | 17.0 | 0.00 | 0.00 | 0.00 | 54 | 1011.9 |
| 20260830094047 | 76 | 237 | 6.0 | 11.0 | 0.00 | 0.00 | 0.00 | 55 | 1011.9 |
| 20260830093044 | 74 | 224 | 8.0 | 14.0 | 0.00 | 0.00 | 0.00 | 56 | 1012.1 |
| 20260830092043 | 75 | 245 | 7.0 | 13.0 | 0.00 | 0.00 | 0.00 | 56 | 1011.9 |
| 20260830091039 | 74 | 206 | 6.0 | 11.0 | 0.00 | 0.00 | 0.00 | 58 | 1011.9 |
| 20260830090034 | 73 | 228 | 7.0 | 14.0 | 0.00 | 0.00 | 0.00 | 60 | 1011.9 |